Погода в Херсоне

Погода в Херсоне : погода сейчас, прогноз погоды и архив. Всё, что Вы хотите узнать о погоде в Херсоне!

Хотите узнать прогноз погоды в Херсоне? Тогда Вам сюда: Погода в Херсоне

Поиск расширенной информации на нашем сайте:

Полезная информация:

Другие новости

Новости СМИ2

Главная страница сайта

Новости сайта

03.07.2017

Напоминаем, что на нашем специализированном сайте Метеоцентр.Азия вы можете получить высокодетализированные автоматические прогнозы погоды по пунктам России, СНГ и мира в авиационном формате (включающие направление и скорость ветра, видимость, явления погоды, количество и форму облачности, нижнюю и верхнюю границу облачности).

Рекомендуем:

Погода в Херсоне - сегодня

Время (UTC), дата Ветер
(°,м/с) 
Видим.   Явления Облачность Т
(°С)
Тd
(°С)
f(%) Тe
(°С)
Pmin
(гПа)
dP
(гПа)
Po
(мм)
O2
(г/м3)
Тmin Tmax R s Состояние
почвы
09 15.09.19 350 (С) 10 км    ясно 
+20.8 +6.7 40 +21  1025.9  -0.4  765  285           
12 15.09.19 360 (С) 10 км    3/0 верхняя 
[Ci fib]
+22.4 +6.2 35 +22  1024.2  -1.6  763  283           
15 15.09.19 300 (СЗ) 10 км    3/0 верхняя 
[Ci fib]
+22.4 +6.2 35 +22  1022.9  -1.3  762  283           
18 15.09.19 230 (ЮЗ) 10 км    ясно 
+16.8 +7.1 53 +18  1022.9  -0.1  762  288           
21 15.09.19 230 (ЮЗ) 10 км    ясно 
+14.4 +8.2 66 +16  1021.9  -1.1  762  290           
00 16.09.19 210 (ЮЗ) 4000 м  дымка  ясно 
+11.8 +10 89 +14  1020.8  -1.1  761  292           
03 16.09.19 280 (З) 4000 м  дымка  ясно 
+10.6 +8.8 89 +12  1019.3  -1.5  760  293           
06 16.09.19 180 (Ю) 10 км    1/0 верхняя 
[Ci fib]
+18.4 +9.7 57 +20  1018.4  -0.8  759  285  +9.4  +2.3       
09 16.09.19 190 (Ю) 10 км    1/0 верхняя 
[Ci fib]
+23.7 +9.5 41 +24  1016.7  -1.5  758  279           
12 16.09.19 210 (ЮЗ) 10 км    3/3 600 м 
[Cu med, cong]
+24.7 +11 42 +27  1014.6  -2.1  756  277      310     
15 16.09.19 210 (ЮЗ) 10 км    ясно 
+22.7 +12.5 53 +27  1012.9  -1.7  755  279           
18 16.09.19 200 (Ю) 10 км    ясно 
+19 +15.4 80 +29  1013  755  281    +25.6       
21 16.09.19 210 (ЮЗ) 4000 м  дымка  ясно 
+18.2 +16.5 90 +30  1012.5  -0.5  755  281           
00 17.09.19 230 (ЮЗ) 4000 м  дымка  ясно 
+17.5 +16.5 94 +29  1011.4  -1.1  754  282           
03 17.09.19 220 (ЮЗ) 4000 м  дымка  4/0 верхняя 
[Cc]
+16.2 +14.6 90 +25  1010.9  -0.6  753  284           
06 17.09.19 230 (ЮЗ) 4000 м  дымка  9/4 1000 м средняя, верхняя 
[Sc|Ac lent|Cc]
+18.4 +17.1 92 +32  1011  0.2  754  281  +15.7         
09 17.09.19 340 (С) 20000 м    10/8 600 м кучево-дожд., средняя 
[Cb calv|Ac und]
+21.4 +7.7 41 +21  1011.2  0.2  754  280           
12 17.09.19 300 (СЗ) 20000 м    10/8 600 м кучево-дожд., средняя 
[Cb calv|Ac cuf]
+20.9 +8.8 46 +21  1010.9  -0.3  753  281           
15 17.09.19 270 (З) 20000 м    9/3 600 м средняя, верхняя 
[Sc diur, vesp|Ac cast|Cc]
+20.4 +10.5 53 +22  1010.6  -0.3  753  281           
18 17.09.19 220 (ЮЗ) 10 км    6/6 1500 м средняя 
[Ac cuf]
+17.1 +10.3 64 +20  1011  0.4  754  284    +22.9       
21 17.09.19 240 (ЮЗ) 10 км    8/4 600 м кучево-дожд., средняя 
[Cb calv|Ac cuf]
+17.5 +12.5 72 +24  1010.7  -0.3  753  283           
00 18.09.19 190 (Ю) 10 км    8/4 600 м кучево-дожд., средняя 
[Cb calv|Ac cuf]
+16.6 +13.6 82 +24  1009.5  -1.2  752  283           
03 18.09.19 160 (Ю) 4000 м  дымка  8/3 600 м кучево-дожд., средняя 
[Cb calv|Ac cuf]
+16.8 +14.9 89 +26  1007.3  -2.2  751  282          затоплена
водой 
06 18.09.19 260 (З) 10 км    6/3 600 м кучево-дожд., средняя 
[Cb calv|Ac und]
+21.4 +14 63 +28  1006.9  -0.3  751  278  +16.2  +2.4       
09 18.09.19 300 (СЗ) 10 км    8/4 600 м кучево-дожд., средняя 
[Cb calv|Ac und]
+19.9 +7.4 44 +20  1009.5  2.5  752  281           
Время (UTC), дата Ветер
(°,м/с) 
Видим.   Явления Облачность Т
(°С)
Тd
(°С)
f(%) Тe
(°С)
Pmin
(гПа)
dP
(гПа)
Po
(мм)
O2
(г/м3)
Тmin Tmax R s Состояние
почвы

Для получения пояснительной информации подведите курсор к названию столбца.

ПОГОДА в Херсоне - архив

Всё, что Вы хотите узнать о погоде в Херсоне - удобно и подробно!

Выберите нужную дату (начиная с 1 января 2018* года) и нажмите кнопку "Найти".
Будут отображены архивные сводки погоды по пункту Херсон, начиная с указанной даты.


Отображать данные в формате CSV (для использования в таблицах Excel)


Внимание! Наш архив погоды предназначен исключительно для личного некоммерческого использования в познавательных целях. Если Вам необходимы официальные справки о состоянии погоды (для производственных, юридических, коммерческих и т.п. целей), обращайтесь в органы Росгидромета.

*Примечание: данная дата относится к архиву по метеостанциям СССР (Россия, СНГ, Балтия).
Архив по метеостанциям Зарубежной Европы и Азии (кроме Китая) хранится 10 дней, по другим регионам земного шара (Китай, Африка, Америка, Австралия, Океания) - 1 день.

Херсон - район местоположения метеостанции


Название, широта, долгота, высота метеостанции:
Херсон 46.6°ш. 32.6°д. 54 м над ур. моря [Украина]

Дополнительная информация

В oтличие oт бoльшинства пoгoдных сайтoв мы публикуем пoдрoбную метеoинфoрмацию в детальнoм прoфессиoнальнoм фoрмате.

Характеристики температуры и влажнoсти вoздуха измеряются на высoте 2 м в тени вдали oт зданий и деревьев.
Скoрoсть ветра измеряется на высoте 10 м (на урoвне рoста челoвека скoрoсть ветра ниже в 1.5-2 раза). Если метеoстанция нахoдится в гoрoде или в лесу, тo скoрoсть ветра занижена на 2-4 м/с пo сравнению с oткрытым местoм. Скoрoсть ветра над акватoриями крупных рек и oзёр, а также на вершинах хoлмoв на 2-5 м/с выше, чем в oбычных услoвиях.
Атмoсфернoе давление в разных тoчках местнoсти мoжет значительнo oтличаться oт давления на метеoстанции, в зависимoсти oт услoвий рельефа (при пoдъёме на 10 м давление пoнижается примернo на 1 мм рт.ст.).